sat.trackr.live / text

‹ back to catalog

STARLINK-5479

NORAD 55662 · 2023-021AL

PAYLOAD ACTIVE UNKNOWN

§ Identity

Operator
Country
US
Launch date
2023-02-17
Launch site
AFWTR
Launch vehicle
Mass (kg)
RCS (m²)

Purposes: comms

External: N2YO · Heavens-Above · Gunter

§ Orbital elements

Epoch: 2026-05-24T22:25:13.863072Z

Period
96.16 min
Inclination
69.9994°
Eccentricity
0.0002449
Mean motion
14.97525564 rev/d
Perigee alt
572.8 km
Apogee alt
576.2 km
Semi-major
6,952.7 km
B*
-1.2809e-5
RAAN
332.2920°
Arg perigee
267.1946°
Mean anomaly
92.8933°
Rev number
18,070

§ Raw data

STARLINK-54791 55662U 23021AL  26144.93418823 -.00000242  00000+0 -12809-4 0  99902 55662  69.9994 332.2920 0002449 267.1946  92.8933 14.97525564180705

JSON: /api/v1/satellites/55662 · /tle

For live sub-satellite position, see the globe view (requires WebGL).

§ Visibility from observer

Set your observer location to see the next 7 days of passes ≥ 10°. The values pass through the URL so the page stays shareable.

No JS? Fill the form by hand. The geolocation button needs JavaScript.